Location: Kalberh�ni
(46.4610°N, 7.2453°E)
Time: 02:37:36
(UTC+00:00)

Cosmos 2237 Rocket - Pass Details

Date: 20 June 2021
Orbit: 835 x 849 km, 71.0° (Epoch: 25 July)

Event Time Altitude Azimuth Distance (km) Brightness Sun altitude
Exits shadow 22:23:37 22° 205° (SSW) 1,730 3.4 -18.4°
Maximum altitude 22:27:19 90° 294° (WNW) 842 2.1 -18.5°
Drops below altitude 10° 22:32:58 10° 27° (NNE) 2,457 5.3 -18.8°
Sets 22:35:25 0° 27° (NNE) 3,396 6.1 -18.9°
